Theta_e
289 289 289 289 289 288 288 288 288 289 288 287 287 286 286 285 285 284 283 283 283 283 282 282 282 282 281 281 280 279 279 279 278 278 277 277 277 277 276 276 276 275 275 275 275 275 275 274 274 274 274 274 274 274 273 273 274 274 274 273 273 273 273 272 270 270 273 275 274 274 274 274 274 274 274 274 274 275 277 276 276 276 276 276 277
288 289 289 289 288 288 288 288 288 287 287 287 286 286 285 285 285 284 283 283 283 283 283 282 282 281 281 280 280 279 279 279 278 278 277 277 276 276 276 276 276 275 275 274 274 275 274 274 274 274 274 274 273 273 273 273 273 272 273 273 272 272 273 271 271 270 269 273 273 274 273 274 273 274 273 274 274 275 275 276 276 276 276 276 276
288 288 288 288 288 288 288 287 287 286 286 286 286 286 285 285 284 283 283 283 283 283 282 282 282 281 281 280 280 279 279 279 278 278 277 277 276 276 276 276 275 275 274 274 274 274 274 274 273 273 273 273 273 272 273 272 272 272 272 272 272 272 272 272 271 269 270 270 272 272 273 273 273 273 274 275 275 276 275 275 276 277 277 277 277
288 287 287 287 287 287 287 287 286 286 286 286 286 286 285 285 284 283 283 283 282 282 282 282 281 281 280 280 279 279 279 278 278 278 277 277 276 276 275 275 275 275 274 274 274 274 274 273 273 273 273 272 272 272 272 272 272 272 272 272 272 271 272 272 272 271 270 269 271 272 273 272 273 274 275 276 275 275 275 276 276 276 277 277 277
287 287 287 287 286 286 286 286 286 286 286 286 286 286 285 284 283 283 283 282 282 282 282 282 281 281 280 280 279 279 279 278 278 277 277 277 276 276 275 275 275 275 275 274 275 274 273 273 273 272 272 272 271 271 272 271 272 271 271 271 271 272 272 272 271 271 270 269 270 272 273 273 274 275 275 274 275 275 276 275 276 276 277 277 278
286 286 286 286 286 286 286 286 286 286 286 286 286 286 285 284 283 283 283 282 282 281 281 281 281 280 280 280 280 279 279 278 278 277 277 276 276 276 275 275 275 274 274 274 274 273 273 273 272 272 272 271 271 271 271 271 271 271 271 271 271 271 271 271 271 271 271 270 271 271 273 273 273 274 275 275 274 274 275 276 277 277 277 277 277
286 286 286 286 286 286 286 286 286 286 286 286 286 285 285 284 283 283 283 282 281 281 281 280 281 281 280 280 279 279 278 278 277 277 276 276 275 275 274 274 274 274 273 273 273 273 273 273 272 272 272 272 271 271 271 271 271 271 271 271 271 271 271 271 271 271 271 271 272 273 273 274 275 273 275 276 276 276 275 275 275 277 278 277 276
287 287 287 286 286 286 286 286 286 286 286 285 285 285 284 283 283 283 282 281 281 281 280 280 280 280 280 279 279 278 278 277 277 276 276 275 275 274 274 274 273 273 273 273 273 272 272 272 272 272 272 272 272 272 272 271 271 271 272 272 271 271 271 272 272 272 272 272 272 273 274 273 275 276 276 276 275 276 277 276 274 275 276 277 277
286 286 286 286 286 287 287 286 286 285 284 284 284 283 283 283 282 282 281 281 281 281 280 280 279 279 279 278 278 277 277 276 276 276 275 275 274 274 274 273 273 272 272 272 272 272 272 272 272 272 273 274 275 275 274 274 272 271 271 272 272 272 272 273 273 273 273 273 273 274 274 273 274 274 274 274 274 274 276 276 275 276 276 276 277
287 286 286 286 286 286 286 285 284 284 283 283 283 283 283 282 281 281 281 281 280 280 279 279 279 278 278 277 277 277 276 276 278 280 279 275 274 274 273 273 272 272 272 271 271 271 271 272 272 275 275 276 276 276 277 277 276 274 272 273 273 273 273 273 273 273 273 272 273 273 273 273 274 274 274 275 276 276 275 275 274 275 275 275 276
286 285 286 286 286 285 284 284 283 283 283 283 283 283 282 282 281 280 280 280 279 278 278 278 278 277 277 276 276 276 276 276 280 282 281 280 275 274 273 273 272 272 271 271 270 271 271 272 271 274 275 276 275 277 278 278 278 279 278 278 278 276 274 274 274 275 274 273 274 274 273 273 274 275 275 275 276 275 275 275 275 274 273 272 271
285 285 285 285 285 284 284 284 283 283 283 283 282 282 281 280 279 279 279 278 278 278 277 277 277 277 277 276 275 275 275 278 282 282 282 281 279 274 273 272 272 272 271 271 271 271 271 271 271 272 273 274 275 276 278 279 280 280 281 280 280 281 281 278 276 275 275 273 273 274 274 273 274 275 275 275 274 274 275 275 274 274 273 273 273
285 285 285 285 285 284 283 283 283 283 283 283 282 281 280 279 279 278 278 278 278 277 277 277 276 276 276 275 275 275 275 280 282 283 283 282 281 276 273 272 272 272 272 271 271 271 272 272 272 274 274 277 277 276 275 276 278 279 279 279 279 279 280 280 281 278 276 275 274 274 274 275 274 274 275 275 276 274 275 274 275 275 275 273 274
285 285 285 285 285 284 283 283 283 282 281 281 280 280 279 279 279 278 278 277 277 276 276 276 276 275 275 275 275 275 274 279 283 283 283 283 281 278 272 272 272 272 272 271 272 272 273 273 274 274 275 276 276 276 275 274 274 273 274 274 274 275 277 278 278 279 278 276 275 274 275 276 274 275 276 277 275 274 274 274 275 274 274 274 275
284 284 284 284 283 282 283 282 282 281 279 279 278 278 278 278 278 278 277 277 276 276 276 275 275 275 275 275 275 274 274 280 283 284 284 283 282 278 272 272 272 271 271 272 273 273 274 275 275 275 275 275 275 275 274 274 273 272 272 273 274 274 275 275 276 276 276 276 276 276 276 276 276 276 277 278 277 277 277 276 276 275 273 273 272
282 282 282 282 282 282 280 280 280 279 279 278 278 278 277 278 277 277 277 277 277 276 276 276 276 275 275 275 274 273 274 281 283 284 284 284 283 274 272 272 271 271 272 273 274 275 275 276 275 274 274 274 275 277 276 274 273 272 272 273 274 275 275 278 279 279 278 278 277 277 277 278 280 279 279 279 278 278 278 276 273 271 270 268 267
281 280 281 280 281 280 281 280 279 278 278 278 278 277 277 277 277 277 276 276 276 276 276 276 276 275 275 274 274 273 273 279 283 284 284 284 281 272 272 272 272 272 273 274 274 275 275 275 274 274 273 273 275 277 278 277 274 274 274 274 274 275 275 276 278 280 280 281 281 281 282 282 282 281 282 282 279 278 273 270 268 269 267 266 266
281 279 279 280 280 278 278 277 278 277 276 277 277 277 277 276 276 276 276 275 275 275 275 275 274 274 274 273 274 273 272 278 283 284 284 284 280 273 272 272 272 273 273 274 274 274 274 276 275 273 273 273 276 277 278 277 275 275 274 274 273 272 273 275 276 277 279 279 279 279 279 279 280 280 279 279 278 276 270 267 269 269 267 267 265
281 279 279 278 277 275 275 276 277 277 277 277 277 277 277 276 276 275 275 275 275 275 273 273 273 273 273 273 275 273 272 277 283 284 284 284 280 274 273 272 272 272 273 272 272 273 273 276 276 275 274 274 276 278 278 278 276 275 274 273 272 272 274 275 275 274 273 273 273 274 275 276 274 272 272 275 275 273 271 269 269 267 266 266 266
280 278 278 277 275 274 275 276 276 276 277 276 276 277 277 275 274 274 274 274 273 273 272 272 272 272 272 272 273 273 272 274 280 284 284 284 282 275 274 273 272 272 272 271 270 271 272 273 275 277 277 277 277 278 279 279 276 275 275 273 273 273 275 273 273 274 274 274 274 273 271 271 270 269 268 268 269 269 270 270 270 269 268 267 267
280 278 277 276 276 276 276 277 277 276 276 276 276 275 275 274 273 273 272 272 272 271 271 271 271 270 271 272 272 272 272 273 278 283 283 284 283 278 273 273 272 272 271 271 270 270 271 271 272 276 278 278 279 279 278 278 278 276 275 274 274 274 276 274 274 276 273 271 269 268 267 266 266 266 267 267 268 269 269 271 270 270 269 268 267
281 279 277 276 276 276 277 277 277 276 275 275 274 274 273 273 272 272 271 271 271 271 271 270 270 270 270 270 271 271 272 275 276 282 283 284 283 280 274 273 273 272 271 270 270 270 271 272 272 275 278 278 278 278 278 278 278 277 275 277 277 277 275 274 271 268 267 265 264 263 262 262 263 264 265 267 268 269 269 270 271 271 271 271 270
282 280 278 277 276 276 275 276 276 275 274 275 274 273 272 272 272 272 271 270 270 270 269 269 269 269 269 269 270 270 270 273 278 279 283 284 283 281 278 276 278 272 271 269 270 270 272 272 274 276 277 277 277 277 277 278 277 275 276 276 276 276 275 268 266 264 262 261 261 261 262 262 262 263 265 266 268 269 269 270 270 271 271 271 272
282 280 279 278 277 275 275 275 275 274 274 274 274 273 271 271 271 271 271 270 270 269 269 269 269 268 268 268 268 269 270 271 276 279 280 283 283 282 280 279 279 273 272 271 271 272 272 273 273 276 276 276 276 277 277 276 274 274 275 274 275 273 266 262 260 260 261 260 260 260 261 263 264 264 265 267 268 268 269 270 270 270 270 271 271
283 281 281 280 277 276 275 275 275 274 274 274 274 273 271 271 270 270 270 270 270 270 269 269 269 269 268 267 267 268 269 270 271 276 280 281 283 283 281 280 279 277 273 272 273 273 275 276 276 276 275 276 276 275 273 272 272 272 273 273 271 261 260 259 259 258 259 259 260 261 262 264 265 266 267 268 268 269 268 269 270 270 271 271 271
282 281 281 280 278 276 275 274 274 274 274 274 274 274 272 271 271 270 270 270 270 270 269 268 269 269 268 267 267 268 269 269 270 273 277 280 281 282 281 280 279 278 275 273 275 276 277 276 276 276 276 274 270 269 267 268 270 271 270 268 260 259 259 257 257 258 259 260 262 262 263 264 265 266 267 267 267 266 267 267 267 268 268 268 268
280 280 280 281 279 276 275 275 274 273 273 273 274 273 273 272 272 271 270 270 270 270 270 269 269 269 268 268 267 268 268 269 270 271 275 277 278 279 280 278 279 278 275 274 276 274 275 275 273 273 271 272 270 269 269 267 264 262 260 261 259 258 259 258 259 260 262 262 262 262 263 264 265 265 265 265 265 266 268 267 267 267 268 268 267
277 278 279 280 279 277 275 273 273 273 273 273 273 273 272 272 272 271 270 271 270 270 270 269 268 269 268 269 268 267 267 268 269 270 273 275 276 277 278 276 276 276 273 273 272 271 271 271 269 264 263 262 262 259 260 260 260 259 258 257 257 259 262 265 266 263 262 262 262 262 263 263 263 263 265 265 265 266 268 267 267 267 268 268 266
276 277 278 279 279 277 275 274 274 274 273 272 273 273 273 272 272 272 273 273 273 272 271 271 270 270 270 269 267 267 267 267 269 273 273 276 275 275 275 275 275 272 273 273 268 266 265 263 261 260 259 259 259 257 256 256 256 257 256 256 256 257 256 257 257 258 260 260 260 261 261 262 262 264 264 265 265 266 267 267 268 267 268 268 266
274 275 276 277 278 277 275 274 273 273 273 272 272 272 273 276 274 272 272 275 276 276 276 272 271 271 270 271 270 268 268 269 273 276 276 278 279 278 277 277 276 273 275 274 269 264 263 262 261 259 259 258 257 257 256 256 255 255 255 260 259 257 257 258 258 259 260 261 261 261 261 262 262 263 264 265 265 266 267 268 267 267 266 266 265
273 273 274 275 276 276 275 274 273 272 272 272 272 271 270 272 277 277 276 275 276 277 277 277 276 275 272 270 272 274 273 274 275 276 277 278 278 278 278 278 277 277 277 271 266 263 262 261 259 257 257 257 256 256 256 256 256 255 255 256 256 258 259 258 259 259 260 261 261 261 262 262 262 263 264 265 265 265 266 267 267 267 266 265 265
270 271 272 273 274 274 275 274 273 272 271 271 271 270 270 269 269 275 277 277 276 277 277 278 277 276 276 274 272 272 274 275 276 277 278 278 278 278 278 278 277 277 277 273 264 263 262 260 258 257 257 256 257 256 256 255 255 255 255 255 256 257 258 258 260 260 260 260 260 261 261 262 263 264 265 265 266 266 266 266 266 265 265 265 265
268 269 270 271 272 273 273 273 272 271 270 270 269 269 269 268 267 267 271 277 277 276 277 278 278 277 277 277 276 274 275 276 277 278 278 278 278 278 278 278 278 277 277 267 263 261 259 259 258 257 257 256 256 255 254 255 255 255 255 255 256 257 258 260 261 260 260 260 261 261 262 263 264 265 265 266 266 265 266 265 265 265 265 264 264
267 268 269 270 272 273 274 274 272 271 271 270 270 269 269 269 268 268 267 268 271 274 277 278 278 278 278 278 277 276 276 277 277 278 278 278 278 278 277 276 278 278 272 264 263 260 258 257 256 256 256 256 255 256 256 255 256 256 256 256 257 258 259 260 259 259 259 260 260 261 262 263 265 265 265 265 266 266 265 265 265 264 263 264 264
268 269 270 271 272 274 275 275 274 272 271 270 270 269 269 268 269 268 268 268 268 268 270 273 277 278 276 276 277 277 277 278 278 278 278 278 278 278 278 274 272 267 264 261 261 260 257 256 256 256 256 255 256 256 255 255 255 255 255 254 255 256 257 258 258 258 258 259 260 261 263 264 265 265 265 265 265 265 265 265 264 264 263 263 264
268 269 270 270 271 272 273 274 274 273 271 271 270 270 269 268 268 268 269 269 269 269 270 271 273 276 278 277 277 277 278 278 278 278 278 279 279 279 272 268 263 262 261 259 259 258 258 257 256 255 256 255 255 255 255 254 255 254 254 255 256 256 256 256 257 258 259 261 262 263 264 264 265 265 266 266 266 265 265 264 263 263 264 263 264
267 269 271 272 273 274 275 275 274 273 273 271 270 269 269 268 268 268 269 269 269 270 270 271 272 273 276 274 275 277 278 278 279 279 279 279 280 275 269 266 264 261 259 257 256 256 255 255 255 254 255 254 254 254 254 254 254 254 256 256 255 255 255 256 258 260 261 260 260 261 263 264 265 266 266 265 266 265 264 264 263 263 264 264 264
265 266 266 267 267 268 269 271 273 273 272 271 269 269 268 268 268 268 268 268 269 269 270 271 272 271 271 271 275 275 276 278 279 279 278 279 274 268 266 264 262 260 259 256 255 255 254 254 254 253 253 253 252 253 253 253 253 252 252 253 254 255 259 260 260 258 258 259 260 262 264 265 266 266 266 266 265 265 263 263 263 262 263 263 264
264 266 267 267 268 267 268 269 270 271 270 269 269 268 267 268 268 268 268 268 269 269 270 270 270 270 271 272 273 275 276 274 274 273 273 271 266 266 264 262 260 259 257 255 255 254 253 253 252 252 251 252 252 252 252 252 251 251 252 253 254 254 255 255 256 257 258 259 261 263 264 265 266 266 267 266 265 264 263 262 262 262 262 262 263
265 266 267 268 268 269 270 270 271 271 269 269 268 268 267 267 267 268 268 268 268 269 269 270 269 270 271 273 273 274 273 272 272 268 262 261 262 261 261 260 259 257 255 253 253 253 252 251 251 251 251 251 251 251 251 251 250 251 251 252 253 254 255 256 256 257 258 260 262 263 264 265 266 267 267 266 265 264 263 262 262 262 263 263 263
265 266 267 269 269 269 270 270 271 270 269 268 268 268 267 267 268 268 268 268 269 269 269 269 270 270 271 272 276 275 272 270 266 264 263 261 259 259 259 259 258 256 254 252 252 252 251 250 250 250 250 250 250 250 249 249 250 250 251 253 253 255 255 256 256 257 259 261 262 263 264 266 266 267 266 265 266 265 263 262 262 262 263 263 264
265 266 267 268 269 269 269 270 270 270 269 268 268 267 267 267 268 268 268 268 268 268 269 269 269 270 272 275 276 275 269 265 264 261 260 259 257 257 257 257 256 255 254 254 253 251 250 250 250 250 250 250 249 248 248 248 249 250 251 252 253 254 255 256 257 258 259 261 263 264 265 266 266 267 267 267 263 262 262 262 262 262 263 263 264
266 266 268 269 270 270 270 271 271 269 268 268 267 266 267 268 268 268 268 268 268 268 268 268 268 268 271 275 275 272 264 262 259 259 258 257 256 255 254 254 254 254 253 252 251 251 251 251 250 250 249 249 248 248 248 248 249 250 252 253 254 255 255 256 258 259 261 262 263 264 265 265 266 266 265 264 263 262 261 261 261 262 262 263 263
263 264 265 266 267 270 271 271 270 268 268 267 267 267 267 267 267 268 268 267 267 267 267 267 267 268 269 273 268 262 260 259 258 257 256 255 255 254 252 251 250 250 250 249 249 249 249 249 249 249 248 247 247 246 248 248 249 250 251 253 254 256 257 257 258 259 261 262 263 264 264 266 267 266 264 263 262 261 261 261 261 262 262 263 263
261 262 263 264 265 267 269 270 269 268 267 266 266 266 266 267 267 267 267 267 266 266 266 265 266 267 268 262 261 261 259 258 257 256 255 255 254 253 250 249 249 250 249 248 248 248 248 248 248 247 247 247 247 248 248 249 249 250 251 253 254 255 256 257 258 260 262 262 263 264 265 266 266 264 263 262 262 261 261 260 261 262 262 263 263
261 262 263 263 265 267 268 268 267 267 266 266 266 266 266 266 266 266 266 266 265 265 264 264 266 266 262 261 260 258 258 256 256 256 255 254 253 251 249 249 248 249 249 248 248 247 247 247 247 247 247 247 247 248 248 249 249 250 251 252 254 255 256 258 260 261 262 263 264 264 265 266 265 263 263 262 262 261 260 261 261 262 262 262 263
261 262 263 264 265 267 267 267 266 266 266 266 265 265 265 265 265 264 264 264 264 263 263 264 264 260 260 259 258 257 256 256 254 254 254 253 251 249 248 248 248 248 247 247 247 247 247 248 248 247 247 247 247 248 248 249 249 250 252 253 254 256 257 259 261 262 263 264 264 266 267 265 264 263 263 262 261 261 261 261 261 261 262 263 263
262 262 263 264 266 267 266 266 265 263 264 264 264 264 264 263 263 263 263 262 262 262 263 262 260 259 258 258 257 256 255 254 255 254 253 252 249 248 248 247 247 247 247 247 246 247 247 247 247 246 247 248 248 249 249 249 249 250 251 253 255 256 259 261 262 263 264 265 268 268 265 264 263 263 262 261 261 260 260 260 261 262 262 263 263
264 264 265 266 266 265 264 264 263 264 263 263 263 262 262 262 262 261 261 261 261 261 262 260 258 258 257 256 256 255 254 254 252 252 251 249 248 248 247 248 248 247 247 246 246 246 246 246 247 247 247 247 247 247 248 249 250 251 252 253 256 259 260 262 263 264 266 268 269 267 265 263 263 262 262 261 261 260 260 260 261 262 262 262 263
264 264 264 263 263 263 263 263 263 263 262 262 262 261 260 260 260 260 260 260 260 260 259 258 257 257 256 255 254 254 253 253 252 251 250 249 248 247 247 247 246 246 246 246 246 246 245 245 245 246 246 246 247 247 248 249 250 251 252 253 257 260 261 263 265 267 268 269 269 265 264 263 262 262 261 261 260 260 260 261 261 262 262 262 262
262 262 262 262 262 262 262 262 262 262 261 261 260 260 259 259 259 259 259 259 259 258 258 257 256 255 255 255 254 254 254 253 252 251 250 248 248 248 247 247 247 246 246 245 245 245 245 245 245 246 246 247 248 248 248 249 250 251 254 257 259 262 265 267 267 268 269 270 267 264 262 262 261 261 261 261 260 260 261 261 261 261 261 262 262
Wind_Speed
13 15 13 14 14 14 16 15 17 14 12 13 14 14 13 14 14 13 9 12 13 14 14 14 14 15 14 14 14 13 13 12 11 11 11 11 10 10 10 11 11 9 8 8 6 8 8 8 8 7 7 7 6 6 6 6 6 5 5 5 6 5 6 6 10 15 13 3 8 3 1 2 6 3 8 5 6 6 9 9 10 11 11 10 10
14 15 13 13 14 15 15 13 12 11 13 13 14 13 13 14 14 12 15 14 14 15 15 13 13 15 15 15 14 14 14 14 13 12 13 13 12 9 10 11 11 9 9 9 9 8 8 9 8 8 8 8 7 7 6 6 6 5 5 6 6 6 6 6 9 9 18 6 7 5 5 2 10 3 7 9 8 8 10 10 10 9 10 10 10
11 10 10 11 15 15 12 10 11 13 14 13 15 15 14 13 12 14 15 13 13 14 15 15 15 14 14 14 14 14 15 15 14 14 14 14 14 12 11 13 13 12 12 12 11 9 9 9 8 8 6 7 7 6 6 6 6 6 6 6 6 6 5 6 6 11 13 16 3 12 4 4 5 9 7 8 9 9 12 10 9 9 8 9 11
11 10 11 13 13 10 11 12 11 13 14 15 17 16 14 13 12 14 14 12 14 13 13 14 14 15 15 15 15 15 15 14 14 14 14 14 13 14 12 12 12 11 12 11 11 10 11 9 8 8 8 8 6 6 6 6 6 6 6 6 6 6 5 5 7 8 11 15 11 5 10 7 8 7 8 9 9 10 8 11 10 11 11 10 10
9 12 12 13 11 11 12 12 13 14 16 15 17 16 14 13 12 14 13 13 14 13 13 13 14 15 15 17 17 16 16 16 15 14 13 12 13 13 13 12 12 12 11 11 10 11 10 10 8 9 8 8 7 7 7 8 7 7 6 6 6 5 5 6 7 7 10 14 16 9 8 11 8 9 7 9 9 9 10 11 11 11 12 10 8
9 9 9 11 12 13 13 12 14 16 18 17 17 16 15 13 13 12 14 15 13 14 14 13 14 16 16 16 15 15 14 14 15 15 14 13 12 12 11 12 11 11 10 9 10 10 10 9 8 9 10 10 9 8 8 8 7 7 7 6 5 5 5 6 6 8 10 13 11 16 10 9 12 6 6 9 8 13 15 13 9 8 9 10 7
10 11 13 14 14 14 14 15 16 17 17 16 13 11 13 13 13 14 13 14 14 13 14 15 13 15 15 14 14 15 14 14 13 14 14 13 13 13 12 11 10 9 9 9 9 9 8 8 9 10 10 9 9 9 8 8 7 7 7 6 4 5 5 6 7 9 10 12 12 12 15 13 7 14 6 6 13 10 12 17 17 6 7 11 14
11 12 12 12 13 14 15 16 17 17 14 10 10 11 11 11 13 12 11 13 14 15 15 15 13 12 12 13 13 12 13 13 13 14 14 14 13 13 12 12 11 10 9 9 8 9 9 9 9 9 9 8 8 7 7 7 5 6 5 4 5 6 7 7 8 9 9 9 10 14 12 13 16 11 9 10 13 8 5 10 18 19 16 13 10
10 10 9 11 13 13 12 12 11 9 9 10 10 11 12 12 11 11 12 12 11 13 13 13 13 13 12 13 13 12 13 14 13 14 14 13 12 13 13 12 11 11 9 9 8 8 8 7 7 7 7 9 11 9 8 7 5 5 5 6 6 7 7 7 7 7 7 8 10 9 13 16 11 14 16 11 10 17 14 11 16 18 14 17 19
13 11 11 13 12 10 9 7 7 8 9 12 13 12 11 12 13 13 14 14 12 12 12 13 13 14 13 13 12 11 12 10 13 20 17 14 14 11 10 11 11 11 11 10 8 8 8 7 7 12 12 13 12 13 13 13 13 8 6 6 8 8 8 7 7 7 7 8 7 8 13 13 14 15 16 15 15 14 14 14 16 16 18 19 17
11 12 13 12 9 7 7 9 9 11 12 11 9 12 13 12 13 12 12 12 13 12 12 13 13 13 14 14 14 12 11 10 19 22 22 21 14 12 12 11 11 11 10 10 10 9 8 7 6 10 11 11 11 15 14 14 14 15 16 15 12 9 7 8 8 7 8 9 7 8 11 18 17 13 12 17 13 14 14 12 18 17 15 20 21
9 8 8 6 6 8 9 9 10 12 9 10 10 10 8 9 11 11 11 12 12 11 13 14 13 13 12 12 13 12 11 13 23 23 23 24 19 12 11 10 10 10 10 10 9 8 8 8 7 6 7 8 8 8 11 13 14 15 15 16 17 18 17 10 8 7 7 8 9 9 11 15 17 13 15 11 14 15 15 18 14 18 17 19 19
8 7 6 5 7 7 6 8 9 9 10 10 9 8 10 10 11 11 14 12 9 11 14 13 13 12 12 13 13 12 10 17 23 24 24 24 24 16 10 10 11 10 11 10 9 9 8 8 8 7 7 14 10 7 6 6 11 14 13 14 15 16 16 18 18 12 8 9 11 13 11 13 16 14 11 13 14 20 18 15 16 12 18 17 25
9 10 8 6 6 5 6 7 8 8 5 6 6 8 10 12 11 9 8 8 11 11 11 13 12 13 13 13 12 11 11 18 24 25 24 25 24 18 10 11 11 11 11 11 10 10 10 9 9 8 8 9 7 7 7 7 5 4 5 6 6 10 14 17 18 19 16 12 12 13 12 10 14 16 15 17 16 14 16 17 19 16 19 17 19
11 10 9 8 5 4 4 5 6 4 4 5 5 7 8 6 7 8 9 11 12 13 13 13 12 12 12 11 11 11 10 20 24 25 25 25 25 18 10 10 9 10 10 10 10 10 10 9 9 8 8 7 6 7 6 7 6 7 8 8 9 9 10 10 10 9 10 11 12 12 13 13 14 15 14 11 12 14 15 18 16 13 16 18 19
9 9 9 8 6 4 3 4 4 3 4 4 6 7 6 8 9 8 8 8 7 7 8 9 12 13 12 12 11 11 10 22 23 25 25 25 25 13 11 11 11 10 10 10 10 10 10 10 8 8 8 7 9 14 12 9 9 9 10 9 8 9 10 11 14 14 13 12 12 12 12 12 17 17 17 16 15 14 12 13 15 15 16 17 19
10 9 8 7 6 4 3 4 4 4 5 6 7 7 7 8 7 5 7 7 8 9 10 10 10 11 12 11 12 10 9 19 24 24 25 27 19 11 12 10 10 11 11 10 10 10 10 9 8 7 8 7 11 14 16 14 8 9 8 7 7 8 8 7 14 20 21 21 23 23 25 26 27 28 28 30 21 16 14 15 16 9 12 16 17
10 9 9 8 6 4 3 3 4 4 5 8 9 8 6 5 6 6 9 8 9 8 6 6 5 7 10 11 12 12 11 17 24 24 25 27 18 14 12 11 11 10 10 10 8 8 10 16 11 8 8 8 13 16 16 12 7 7 7 8 7 6 8 9 8 9 15 18 21 23 26 27 29 27 23 21 25 22 12 14 14 11 16 14 18
11 10 9 7 5 4 3 3 4 4 5 6 6 7 7 8 5 5 6 6 7 6 6 7 7 7 8 10 11 11 10 15 24 25 26 27 18 12 12 11 11 10 10 9 8 8 9 12 16 12 10 11 16 16 16 13 7 7 6 5 8 9 10 9 8 8 7 9 12 13 14 14 9 9 14 24 24 20 15 15 12 10 14 13 13
10 9 8 7 5 4 3 4 4 5 5 4 3 4 3 4 5 6 5 5 6 6 6 6 8 6 6 8 9 11 11 11 16 25 26 27 23 13 11 12 12 12 10 10 10 8 8 8 12 17 17 17 17 17 15 15 7 4 5 7 9 8 4 4 7 9 10 9 7 6 8 8 9 10 9 10 12 12 13 13 13 13 13 14 14
10 9 8 7 5 4 3 3 4 4 4 5 4 3 4 5 5 6 6 5 5 5 7 6 7 6 6 7 7 8 9 12 14 24 25 27 26 19 12 12 11 12 12 11 9 10 9 8 7 14 18 18 17 16 14 13 10 6 7 6 5 6 10 7 8 12 8 7 8 9 9 9 9 9 10 10 10 9 11 14 14 15 15 15 15
11 9 8 7 7 5 4 4 3 3 4 6 6 5 3 5 5 6 5 6 7 7 6 6 7 6 6 7 7 7 8 13 11 21 27 28 27 26 13 12 12 12 11 10 9 8 9 9 8 13 18 17 16 14 13 11 12 6 4 9 13 14 9 6 3 3 4 6 7 8 8 8 9 8 8 8 8 10 10 12 14 15 15 16 16
12 10 9 8 6 5 4 4 4 3 5 6 7 7 6 6 6 6 7 7 7 8 7 7 7 7 6 6 5 6 7 8 14 14 24 26 27 24 20 13 20 11 12 12 11 10 8 8 9 16 16 15 14 13 11 12 8 3 7 9 10 12 9 3 4 5 5 6 7 8 8 8 8 9 8 9 9 9 10 11 13 15 16 17 19
12 11 11 9 7 6 5 4 4 4 5 6 6 7 7 7 7 7 7 8 8 8 7 7 7 8 10 7 5 6 6 7 11 14 16 26 26 25 24 21 21 11 9 9 8 9 9 9 9 16 15 14 13 12 10 7 3 6 7 8 9 6 3 4 3 4 6 6 7 8 9 8 8 9 9 9 11 11 11 12 13 15 16 16 18
13 13 13 11 8 7 4 4 4 5 5 7 8 7 8 8 8 7 8 7 8 8 8 8 9 9 7 7 6 6 6 6 5 13 19 20 26 24 23 22 21 19 10 6 7 8 10 16 17 15 14 14 11 6 3 1 2 4 5 6 4 3 2 2 4 4 6 6 7 8 9 9 9 12 12 13 12 13 13 12 12 13 14 16 17
15 15 14 12 10 6 6 6 5 6 7 6 7 8 10 10 9 8 8 9 9 10 9 10 9 9 7 6 7 8 8 8 10 11 13 19 20 25 23 23 21 20 13 9 12 15 16 16 17 15 12 8 5 4 3 2 4 4 4 4 2 1 2 3 4 5 6 6 7 9 9 9 10 11 13 13 12 12 11 12 12 12 10 12 13
15 15 15 13 10 6 7 6 6 6 7 6 7 7 7 8 9 9 10 10 10 10 11 12 12 11 13 8 5 5 6 6 9 11 11 12 13 15 17 15 19 18 11 9 12 10 12 11 7 9 8 7 7 4 3 1 2 2 1 0 1 2 4 4 5 5 6 7 8 8 9 10 11 11 11 10 11 10 9 12 12 13 12 12 15
14 15 16 13 11 8 7 9 9 7 8 8 8 8 8 9 10 12 13 13 13 12 12 12 14 14 15 10 8 7 7 10 11 12 11 10 9 9 9 9 10 8 8 8 6 6 6 8 9 5 5 5 4 4 2 0 1 2 1 1 2 4 6 8 8 5 6 6 8 8 9 9 10 10 11 10 10 10 9 10 11 14 14 12 14
16 16 15 12 12 9 7 8 8 9 8 8 9 9 10 11 11 10 9 8 10 12 12 12 12 10 10 11 11 7 6 11 13 10 10 12 10 10 9 9 9 7 10 14 9 7 6 5 5 5 4 5 4 2 1 2 1 1 2 2 3 4 3 2 4 5 5 5 7 8 10 10 11 10 11 11 11 11 10 11 12 12 13 12 14
15 15 13 12 12 10 8 8 8 8 9 9 9 9 10 13 10 10 9 12 16 14 11 9 9 9 10 10 12 15 17 14 15 21 20 22 22 19 14 14 13 12 16 20 10 6 5 5 4 5 4 4 4 3 3 1 1 1 1 3 3 3 4 4 4 5 5 5 7 8 10 10 11 10 10 11 13 11 12 12 14 12 13 15 16
13 14 13 12 13 11 10 9 8 8 9 9 8 9 8 9 18 20 14 11 14 18 19 16 14 18 12 9 11 16 12 17 23 22 24 24 24 21 19 19 19 20 20 14 8 7 6 6 5 4 5 4 3 4 2 2 1 1 2 2 4 4 5 4 4 4 5 6 7 8 10 10 10 10 11 12 13 14 12 11 11 12 12 12 14
13 15 14 14 15 13 11 11 10 9 9 8 9 9 9 8 7 15 20 18 18 21 22 20 18 19 22 16 11 10 16 21 26 26 27 27 25 23 23 23 22 22 21 18 9 7 7 6 6 7 6 5 5 4 3 3 1 2 3 3 5 3 3 4 4 3 5 6 8 9 9 10 10 11 11 12 12 14 13 14 13 12 13 13 15
15 16 16 15 15 15 13 11 10 9 10 9 9 9 9 9 10 8 10 18 21 20 21 22 21 19 22 23 22 18 17 21 28 28 28 27 26 25 24 24 23 24 22 12 9 8 6 7 7 7 8 7 6 5 4 3 2 2 3 4 5 5 4 5 6 5 6 7 8 9 9 10 11 11 12 11 12 13 14 13 12 13 14 14 17
16 15 15 16 15 14 12 10 10 10 10 10 10 10 10 10 10 8 7 7 9 13 19 22 22 21 21 23 23 23 23 25 28 28 28 26 26 26 24 18 22 25 17 10 9 9 8 8 9 10 8 7 6 4 3 2 2 3 3 4 4 5 6 5 4 5 5 7 8 9 10 10 10 10 12 12 12 11 12 14 12 13 15 15 15
14 17 25 21 14 14 13 11 10 10 10 10 10 10 10 9 9 9 10 11 11 10 9 11 18 22 17 18 22 25 25 26 28 28 29 28 27 26 24 15 13 10 8 6 8 8 11 12 11 9 8 7 5 5 4 3 3 3 4 4 4 4 4 4 5 5 7 7 8 8 9 10 11 10 11 12 13 13 13 13 14 13 14 16 16
15 15 14 16 15 14 14 13 11 10 10 11 10 10 10 9 10 10 9 9 9 9 8 9 9 15 24 21 24 24 26 27 28 29 28 29 28 29 15 10 9 8 9 7 8 7 7 7 7 8 6 7 4 4 3 3 3 3 3 4 5 4 4 5 6 6 7 8 8 10 11 10 10 11 12 12 13 14 13 14 14 15 14 14 15
13 14 12 11 10 10 10 10 10 10 10 9 9 9 9 9 9 9 9 10 10 9 9 8 8 9 14 12 20 23 27 28 29 29 29 28 32 19 11 13 13 10 9 9 9 10 9 7 6 7 5 6 4 4 3 3 3 3 4 4 4 5 5 5 7 7 7 8 9 10 10 10 11 11 11 13 13 12 12 13 13 15 16 18 20
16 15 15 15 14 15 15 15 12 11 10 9 9 9 9 9 10 10 10 10 10 10 10 10 11 12 13 11 19 14 18 24 28 25 24 25 18 11 11 10 10 11 11 10 12 11 11 7 6 8 6 5 4 3 3 4 4 4 4 4 3 4 9 9 10 8 8 8 9 9 9 10 10 11 11 13 13 13 13 14 15 15 18 18 12
12 21 28 30 24 17 15 15 15 12 10 9 9 9 10 10 10 10 10 9 10 10 10 10 11 12 11 11 12 14 18 16 16 16 15 11 9 10 10 10 9 8 10 11 11 10 11 10 9 6 6 5 4 4 4 4 4 4 4 3 4 5 6 6 7 7 7 8 8 9 10 10 10 10 11 12 12 12 13 15 12 12 14 16 15
15 12 17 25 17 17 15 14 13 12 11 10 10 10 9 10 11 11 10 10 11 11 10 11 11 11 11 13 13 14 15 14 12 9 9 10 9 8 9 9 8 9 11 11 11 11 10 9 8 6 5 4 4 4 4 4 5 4 3 3 4 6 6 6 6 7 8 8 9 9 10 11 11 12 11 10 11 12 13 15 15 15 15 16 17
13 16 18 19 19 16 14 14 13 12 10 10 10 10 11 11 10 9 10 11 10 11 11 10 10 10 11 14 24 20 13 11 10 10 10 11 10 10 9 8 8 8 10 12 11 10 9 10 8 7 5 4 4 4 4 4 4 3 3 4 4 6 6 7 7 7 8 9 9 10 10 11 11 11 11 11 13 14 13 13 14 15 16 16 16
14 15 15 14 14 13 13 14 12 11 10 9 10 11 10 10 10 10 10 11 10 10 10 9 9 9 15 26 28 21 11 8 9 8 8 8 10 9 8 8 7 8 9 8 7 10 10 8 7 5 5 4 4 4 4 4 4 4 4 4 5 5 6 7 7 7 8 9 10 10 11 11 13 13 13 14 13 13 14 14 15 16 16 16 17
15 14 13 11 11 12 12 12 10 9 9 10 10 9 10 10 11 10 10 9 10 10 10 10 9 10 12 23 22 19 10 9 8 9 10 11 10 11 11 11 9 7 6 6 5 8 9 6 5 4 5 4 5 5 6 5 4 4 4 4 5 6 6 7 7 8 8 9 10 11 14 14 13 10 12 13 13 13 13 14 15 15 16 16 17
14 14 14 14 15 13 11 11 10 10 10 11 11 10 10 10 10 10 10 10 10 10 10 10 10 11 12 15 13 12 10 10 10 12 12 13 12 12 12 11 10 9 7 5 5 4 5 6 6 3 3 2 3 3 3 4 4 5 5 5 5 6 6 6 7 8 9 9 11 12 12 12 11 11 12 13 12 14 14 14 15 15 16 16 17
14 15 15 15 14 14 13 9 9 9 9 8 9 9 9 9 10 9 9 9 8 9 9 10 10 12 9 8 10 11 11 12 11 9 7 11 10 9 12 12 12 8 6 6 5 6 7 6 4 3 2 2 3 4 4 5 5 6 6 6 5 6 7 7 8 9 10 10 10 10 11 11 10 12 12 12 12 13 13 14 14 16 17 16 17
13 13 14 13 14 12 11 8 6 8 9 9 9 9 9 9 9 9 9 9 9 10 9 10 11 9 8 9 9 10 12 14 13 9 9 10 11 13 12 11 9 8 8 7 6 7 6 5 4 4 3 2 3 4 5 5 6 6 6 6 7 8 8 8 9 9 10 10 10 10 11 8 11 11 14 13 12 12 13 15 14 14 15 17 17
14 13 13 13 13 11 8 7 8 8 8 8 8 9 9 8 8 8 7 9 10 8 10 11 9 9 9 10 10 12 12 12 14 12 14 13 13 14 12 10 9 8 7 6 6 5 5 4 3 3 3 3 3 5 5 5 5 5 5 6 6 8 8 8 9 10 11 12 11 10 8 8 11 12 14 14 13 13 14 14 14 17 16 16 17
12 11 12 12 11 9 7 7 8 7 7 7 7 7 6 7 7 7 8 9 10 9 10 9 8 9 9 9 9 10 10 10 9 10 13 13 14 13 12 11 10 9 8 6 4 3 4 3 3 2 3 4 4 5 5 5 5 5 5 5 6 7 11 13 10 11 10 10 11 9 6 8 10 12 13 13 13 13 14 15 15 15 16 16 16
10 10 11 10 7 6 6 7 6 7 7 7 8 8 7 8 8 8 9 9 9 9 10 9 9 9 9 10 9 12 12 11 14 13 13 13 12 11 10 10 9 8 8 6 4 3 3 2 3 3 4 4 5 5 5 4 5 5 6 6 8 14 17 19 14 11 16 15 9 4 5 7 10 13 13 13 14 13 13 14 14 15 15 15 16
1 3 4 5 6 6 6 6 7 7 7 8 8 8 8 8 8 8 9 9 9 9 8 9 9 10 11 11 10 10 9 8 8 8 9 12 11 10 9 9 8 6 6 6 4 3 2 2 3 3 4 4 4 4 4 4 5 6 6 7 13 17 18 20 20 21 17 11 7 3 5 8 10 11 11 12 13 14 14 14 15 15 14 16 16
5 6 6 6 7 7 7 8 8 8 8 8 9 9 9 9 9 9 9 10 10 9 9 9 10 10 9 10 10 10 10 8 7 7 12 12 10 10 8 9 7 6 4 3 2 2 2 3 3 4 3 3 3 4 4 4 5 6 9 14 17 18 18 17 13 16 22 15 3 3 5 8 10 12 12 12 12 13 15 15 15 14 14 14 15
Wind_Direction
200 211 204 210 211 210 211 209 211 206 200 199 202 203 197 192 191 194 168 186 182 186 186 189 186 186 183 186 187 187 186 186 186 183 185 186 185 182 174 180 180 179 172 180 181 179 184 184 182 182 170 178 180 174 171 168 164 171 176 182 205 204 198 225 251 274 283 202 277 268 258 294 282 253 283 276 275 273 276 272 271 279 278 277 278
207 211 205 211 210 216 215 210 209 202 203 202 206 204 201 197 193 177 187 189 183 187 188 187 187 185 184 187 190 188 187 187 185 184 188 187 184 179 177 180 181 178 174 183 184 186 183 183 185 177 181 182 178 176 169 164 165 170 185 190 204 211 205 218 251 264 285 276 281 277 268 241 284 240 272 290 281 276 271 274 271 260 273 276 275
219 215 211 211 216 218 216 211 205 204 203 204 206 205 205 200 187 189 191 186 188 188 188 186 186 184 186 186 187 191 189 187 187 188 191 188 183 180 180 180 181 179 183 188 185 180 182 190 187 174 173 182 187 176 163 169 168 177 194 195 208 212 212 220 244 267 274 284 273 292 268 268 266 291 280 271 275 274 279 270 269 271 258 261 268
213 211 216 220 220 213 214 214 204 205 205 208 208 207 203 199 191 194 192 184 186 191 187 186 181 185 187 188 186 191 191 189 187 191 191 187 183 182 179 183 185 185 187 184 182 184 188 184 188 176 176 181 184 172 173 169 175 184 191 207 204 215 216 215 237 253 279 286 283 252 298 290 285 271 282 278 277 279 259 274 269 263 264 261 259
215 215 214 219 214 212 214 206 209 210 211 209 211 206 202 198 193 196 188 191 190 183 188 183 184 186 190 190 189 190 192 188 184 186 188 187 185 180 181 182 185 187 188 186 183 183 184 191 180 175 178 180 183 179 177 179 183 182 198 200 207 214 216 228 239 248 268 274 286 278 284 290 273 278 270 284 290 271 276 271 271 272 274 262 255
222 219 218 220 219 214 213 206 212 213 214 214 211 203 200 196 194 196 193 192 187 189 183 185 189 191 192 192 190 189 188 188 187 184 183 181 182 182 180 182 185 185 184 183 181 185 187 185 179 179 183 186 188 180 179 183 179 190 196 202 203 209 224 236 245 254 261 270 276 293 283 283 304 259 277 286 288 304 300 286 269 269 280 287 267
221 219 218 215 217 214 210 209 211 213 215 215 209 201 200 198 194 197 194 193 187 186 188 188 192 191 193 189 189 187 186 185 184 182 180 181 181 179 179 181 182 179 182 181 182 184 184 183 183 186 189 191 183 181 177 179 184 192 196 196 200 216 232 243 245 250 253 265 272 273 293 296 277 301 290 276 289 291 297 310 307 289 276 292 299
230 227 226 225 223 221 216 215 213 214 212 210 205 201 197 196 199 195 188 192 191 190 189 191 190 189 190 189 189 183 182 184 184 182 180 179 179 180 178 177 176 177 177 180 181 184 186 186 189 192 191 190 183 176 173 179 171 182 189 187 201 221 235 239 243 246 253 260 270 290 292 294 302 285 286 301 302 289 281 305 304 310 313 297 280
246 241 242 239 236 231 227 224 224 217 205 203 201 197 196 196 191 189 191 195 192 192 189 186 182 188 188 187 183 183 184 186 184 181 178 178 179 178 176 175 173 173 174 179 184 183 185 189 192 195 188 189 188 184 183 180 175 186 190 192 210 221 230 235 241 251 257 263 275 278 288 294 291 303 310 310 310 308 314 308 298 299 302 303 301
234 231 229 233 235 234 236 235 224 213 206 204 202 196 192 190 188 191 192 192 190 186 185 186 187 186 183 184 183 183 189 187 185 182 178 173 174 174 171 173 173 172 173 176 181 185 187 187 195 195 197 197 200 201 202 205 203 187 191 201 211 221 228 234 241 247 254 262 267 286 293 290 297 302 300 302 305 304 304 306 300 305 306 297 293
225 221 225 228 229 220 215 216 208 212 214 208 202 195 194 191 190 190 190 188 187 183 182 185 187 185 186 183 183 187 188 186 182 182 180 174 170 171 171 172 172 172 174 174 180 182 183 185 183 199 200 204 206 210 213 213 216 216 213 215 215 210 205 227 238 244 263 272 282 285 284 289 292 295 294 303 302 303 302 302 302 303 303 307 304
229 235 236 239 228 221 218 215 210 216 207 210 204 201 189 183 187 188 185 186 188 181 186 188 185 185 184 184 187 186 187 181 182 182 178 175 171 169 169 169 169 172 173 176 177 174 177 178 186 189 199 199 195 206 213 217 221 226 233 241 247 251 251 252 260 260 258 274 277 272 284 285 291 293 296 301 303 300 299 298 296 302 298 302 291
300 284 270 246 239 225 221 216 220 217 210 206 197 188 188 189 189 186 192 189 172 183 190 182 188 182 182 183 188 186 186 182 183 181 180 177 173 166 168 165 168 172 174 174 171 170 173 180 184 189 192 197 196 185 172 215 227 232 238 242 250 254 258 261 262 265 275 273 272 273 269 282 288 289 290 297 297 297 298 295 296 293 291 288 287
313 296 294 275 257 236 224 221 225 224 212 204 194 194 193 198 194 187 174 171 185 187 185 187 181 183 183 184 185 185 184 184 184 183 180 177 173 165 164 164 169 171 171 172 171 174 178 179 179 183 182 187 187 172 171 189 181 204 230 240 238 250 255 259 262 265 265 265 267 270 273 268 276 283 284 289 289 288 294 293 295 287 289 285 296
318 313 307 303 292 267 246 236 240 226 199 196 196 201 201 196 184 185 183 185 186 188 186 187 188 182 182 181 182 184 184 185 185 183 180 176 173 159 161 163 165 170 170 171 175 175 178 179 182 178 171 170 167 171 175 183 182 200 212 218 224 226 233 239 249 249 256 257 259 263 267 266 266 271 276 275 271 280 285 288 299 308 303 298 292
324 321 314 312 305 285 255 244 233 201 186 192 198 200 194 193 191 187 187 193 193 184 192 189 185 185 182 178 178 182 180 187 187 184 180 177 170 155 163 166 167 169 170 172 176 179 179 182 173 165 167 171 181 195 198 190 197 207 213 219 222 233 245 251 256 257 260 260 261 261 263 264 272 277 282 289 294 294 297 304 307 305 304 298 291
335 326 316 309 305 295 269 235 219 190 180 188 199 199 193 197 197 177 186 194 192 195 195 191 191 184 178 178 178 178 175 189 188 185 181 177 166 155 164 165 169 169 175 174 175 179 181 172 163 159 170 175 191 206 212 209 204 206 211 219 230 237 251 257 263 266 268 270 273 277 281 284 285 285 286 289 291 303 315 306 293 303 291 291 290
332 324 314 305 294 278 251 225 225 204 192 201 201 202 191 189 188 177 188 188 195 198 188 187 189 186 182 182 180 175 180 188 189 186 181 181 164 161 165 167 168 170 171 175 172 176 172 172 167 167 175 184 198 211 213 214 211 208 219 226 227 248 259 259 261 264 272 279 280 282 282 282 282 285 290 297 297 298 297 285 293 301 283 278 283
331 324 313 304 287 255 227 208 213 209 215 218 204 200 194 192 179 166 184 182 191 177 179 185 185 186 189 183 175 172 175 188 191 188 184 183 167 162 163 166 166 171 169 169 170 168 177 183 184 180 183 192 204 209 213 212 209 204 208 233 251 249 254 261 270 280 278 272 265 262 269 277 287 296 295 294 291 290 283 277 284 273 276 276 278
316 307 301 297 286 257 232 219 209 200 211 212 206 205 168 147 166 174 182 178 174 172 178 178 181 187 177 178 183 177 176 187 194 191 188 187 170 161 164 166 172 171 172 172 167 177 173 181 195 197 194 198 204 210 214 219 207 200 215 232 241 245 264 281 272 268 265 263 277 295 290 289 289 293 290 283 278 269 266 265 268 273 272 275 276
317 311 308 306 296 273 257 230 216 201 181 179 166 160 168 171 159 170 172 166 160 170 179 177 174 172 169 178 182 183 183 184 197 193 192 191 178 166 172 175 170 170 173 171 177 174 174 181 180 199 203 205 209 213 216 220 222 218 224 224 241 272 279 269 276 287 296 305 299 294 290 289 282 280 278 275 273 266 263 268 266 267 268 270 273
319 316 310 304 300 285 267 260 223 188 163 153 161 172 164 154 167 167 166 164 174 179 177 177 175 171 170 174 182 181 188 192 194 198 195 195 187 178 170 182 171 166 167 173 175 176 178 177 176 195 196 199 204 207 210 217 229 223 243 265 274 280 282 290 341 6 313 300 294 283 280 278 278 273 270 268 264 263 263 265 270 272 270 270 272
318 314 308 301 291 281 269 239 218 186 176 175 171 170 158 158 168 167 167 169 175 178 178 180 176 178 170 166 164 172 186 197 206 203 199 197 193 184 179 173 179 173 170 173 180 178 171 178 177 185 191 195 199 203 209 223 237 261 262 265 276 282 299 37 360 328 302 286 279 276 278 276 282 282 275 277 271 262 265 262 266 271 269 266 262
319 312 305 297 289 275 257 244 225 209 189 175 176 169 171 168 167 175 174 176 181 182 188 176 182 185 171 169 155 154 176 190 213 214 206 201 200 192 188 184 182 173 175 172 166 171 171 174 172 182 187 192 196 205 214 224 213 240 259 273 286 323 42 347 327 281 273 273 272 277 281 282 282 280 280 277 279 277 272 269 268 267 267 267 264
319 312 307 300 284 272 257 245 230 216 206 187 182 180 175 173 175 180 174 184 187 192 190 185 194 196 172 176 160 165 165 178 190 212 209 206 204 197 190 188 187 177 174 168 166 175 173 169 172 178 188 197 197 180 137 161 257 263 272 290 337 57 352 294 261 262 266 268 274 279 281 282 281 284 285 285 283 283 282 278 272 265 262 262 260
317 311 307 301 290 272 257 251 239 234 220 214 208 194 184 184 184 181 185 191 191 194 189 193 199 199 198 172 174 166 170 165 188 198 205 205 205 202 191 190 187 182 174 173 172 171 171 170 175 188 189 160 117 105 108 196 247 273 309 337 49 300 237 241 256 255 265 274 277 279 283 287 286 285 288 286 284 283 286 284 286 280 273 275 275
309 307 304 302 295 272 252 251 237 233 225 227 219 209 199 194 191 190 192 194 196 198 199 189 190 199 175 193 128 156 169 173 185 196 199 197 197 199 189 187 185 175 167 171 174 168 173 175 160 138 121 128 120 120 130 359 14 357 25 277 231 235 240 233 236 251 267 277 281 282 283 284 285 286 285 285 281 278 275 282 286 288 289 285 283
305 302 300 299 294 276 256 246 238 234 224 216 216 214 209 201 205 203 193 194 194 204 202 201 202 202 189 186 168 174 183 191 196 195 197 193 189 187 177 165 173 167 148 156 139 128 111 115 101 58 70 60 72 48 36 22 235 243 260 239 242 245 260 280 289 282 278 271 276 280 283 285 286 285 285 283 282 282 283 286 289 291 292 292 291
302 297 296 295 288 277 252 250 234 236 234 223 226 219 207 205 212 223 223 212 207 202 201 211 209 205 188 187 170 171 151 196 200 188 192 189 179 175 168 163 157 129 149 143 118 90 95 96 100 90 86 111 105 123 189 218 229 240 259 275 258 255 257 250 255 266 269 281 284 288 288 291 286 287 286 290 292 295 295 294 287 288 292 288 284
297 293 294 294 289 283 267 253 240 235 234 231 229 237 231 225 218 216 221 207 218 223 219 218 203 190 195 202 189 190 195 195 178 186 188 186 183 177 170 162 154 143 150 147 133 123 132 144 159 161 148 138 151 176 187 196 249 283 254 273 281 280 260 249 249 256 272 277 282 289 288 289 288 286 287 289 295 296 295 293 295 295 294 298 297
292 289 290 287 286 286 276 263 250 235 234 233 227 231 236 232 228 226 222 213 212 218 221 222 202 195 191 191 195 199 185 176 182 184 185 185 182 177 169 165 154 158 155 137 131 150 155 163 173 156 169 155 173 190 192 180 225 278 286 264 245 251 265 263 264 270 282 290 288 285 285 287 285 289 293 296 298 300 300 290 282 289 288 291 292
290 288 287 285 286 283 274 265 254 240 238 228 227 227 227 230 236 226 224 221 221 222 223 220 215 204 201 193 178 187 188 182 182 183 182 181 180 175 172 170 168 167 174 148 134 157 164 169 170 176 159 175 199 191 193 193 209 226 268 293 277 252 259 273 285 301 297 292 291 288 285 284 286 290 293 297 297 298 298 298 300 298 298 295 288
280 281 280 279 277 276 270 262 253 243 238 230 227 222 223 221 223 225 222 225 223 224 223 222 217 210 204 202 190 183 182 184 183 182 181 179 176 174 172 171 171 174 161 139 155 156 170 172 172 169 170 180 186 186 199 193 203 219 236 250 275 285 277 286 303 293 285 280 283 284 286 286 286 289 291 295 297 296 298 298 300 300 298 297 297
269 269 274 273 273 272 266 256 250 243 233 230 225 220 221 220 222 211 194 196 221 227 227 222 218 213 209 203 199 188 183 182 182 181 179 177 174 171 170 172 174 175 155 151 153 170 164 172 162 162 168 161 183 187 192 197 213 226 239 250 258 275 283 294 291 285 281 282 277 277 281 279 283 292 296 296 291 287 287 292 297 303 304 302 299
267 265 263 263 260 262 264 263 254 242 237 229 227 221 221 218 210 206 198 199 198 200 197 209 215 212 204 202 195 190 185 182 180 179 178 174 172 170 167 168 167 136 119 144 154 164 163 157 153 163 158 170 188 185 191 191 203 225 236 250 262 262 273 279 279 279 277 276 275 273 277 285 288 286 290 294 297 300 297 299 302 302 301 302 301
273 272 273 273 270 269 265 261 249 240 233 230 224 222 217 210 207 209 207 203 201 194 195 196 195 204 201 195 191 188 182 180 178 177 176 174 172 171 165 157 140 151 146 153 159 164 165 164 157 160 164 158 176 184 191 196 216 219 237 242 259 272 280 284 279 278 274 273 281 288 290 284 286 292 292 288 285 288 293 298 298 301 298 294 298
268 265 257 257 261 267 267 257 247 236 231 228 221 218 215 211 207 205 202 202 199 194 189 176 167 189 196 187 187 187 183 179 178 177 176 176 176 169 153 163 163 156 157 154 153 145 148 154 153 148 169 170 181 181 193 213 226 230 248 252 254 272 277 269 268 267 285 294 288 284 281 285 290 291 291 292 294 291 293 297 298 298 301 299 302
265 266 270 274 278 275 277 277 271 249 236 222 215 213 211 208 204 201 199 199 194 188 182 180 179 180 179 178 181 181 185 179 176 176 178 178 171 153 160 148 148 157 163 154 154 152 140 151 156 155 167 170 165 182 194 225 226 233 238 248 259 250 276 283 292 289 279 276 279 282 285 287 288 291 292 291 293 299 299 303 307 304 304 299 294
254 260 263 266 265 264 263 262 258 247 231 218 210 205 207 205 202 201 200 195 191 189 186 182 182 181 175 167 172 173 174 175 178 178 175 161 142 145 141 145 144 147 146 151 139 145 114 147 136 157 155 168 167 179 196 221 224 231 245 261 273 272 276 274 276 281 285 280 283 286 289 291 289 290 293 293 294 300 301 305 302 302 301 304 303
261 260 264 263 263 258 253 250 248 236 221 210 207 201 204 204 203 201 194 191 192 189 186 183 182 179 169 168 168 173 174 178 171 152 118 126 129 134 137 141 145 148 149 145 152 128 135 122 150 163 171 168 176 190 206 219 220 232 242 250 261 273 275 273 277 284 286 288 288 291 292 292 295 291 288 286 295 303 308 309 308 305 302 300 300
261 262 263 262 257 258 252 248 242 230 221 207 205 197 202 202 200 196 194 195 190 188 185 186 177 171 169 174 175 174 167 162 148 144 149 143 145 142 142 140 139 142 140 121 134 135 129 136 147 160 153 165 180 196 210 213 226 229 240 250 260 267 275 276 274 277 280 288 289 290 292 293 293 293 294 300 309 312 308 306 304 304 303 300 300
261 259 259 258 252 244 247 247 241 227 209 203 199 200 199 196 195 194 195 192 188 183 180 172 172 159 173 172 177 164 143 135 135 133 128 128 131 123 125 123 132 138 145 154 158 156 143 141 150 164 169 180 185 204 210 219 221 229 239 251 260 268 273 278 279 279 283 286 293 293 295 298 299 298 303 310 312 314 311 309 306 304 303 304 304
287 286 284 274 255 242 240 240 226 213 202 201 201 198 193 191 193 193 191 187 183 177 171 166 156 160 167 177 168 143 122 130 132 135 137 130 119 108 116 124 122 121 113 118 126 134 137 151 159 168 177 186 192 194 199 213 206 231 243 250 257 263 271 278 282 284 286 292 295 295 298 299 297 302 311 313 312 310 305 305 304 306 305 305 308
271 270 264 264 271 274 255 234 220 206 201 198 191 190 188 191 189 187 185 180 177 171 168 159 156 158 164 173 144 118 128 128 130 129 128 109 108 120 123 118 112 114 121 132 143 136 139 129 143 165 175 197 213 223 225 226 222 222 238 247 257 267 270 275 280 286 293 296 295 292 294 291 295 309 312 313 314 312 309 307 306 308 309 309 309
260 263 263 264 258 255 257 238 215 200 191 186 187 187 183 184 184 179 174 172 166 161 156 153 154 158 152 117 128 131 129 132 130 128 119 119 116 114 94 103 101 130 137 146 141 132 119 141 154 155 180 215 220 225 234 230 224 228 228 240 251 268 269 276 276 288 292 287 284 287 292 292 307 314 313 311 312 309 305 306 308 309 310 310 312
254 255 255 254 253 247 241 224 203 189 185 183 181 180 179 182 175 172 168 162 157 152 147 148 156 148 121 125 122 126 131 110 97 123 128 121 124 114 90 89 86 99 110 127 139 130 141 152 162 165 182 212 231 234 244 238 236 232 234 232 247 258 265 275 280 283 284 287 288 283 286 297 315 313 312 312 310 308 303 304 305 308 309 310 310
248 245 248 246 246 240 227 202 190 187 180 182 174 173 170 169 158 153 152 146 142 140 143 149 141 119 123 123 127 126 129 130 113 121 119 118 114 101 103 96 102 108 114 112 116 129 155 161 163 164 195 226 242 248 250 247 245 245 243 248 246 264 266 269 278 284 285 286 278 273 292 316 317 320 314 314 311 309 309 308 310 312 312 312 312
237 233 236 238 239 228 203 183 173 165 159 158 152 154 147 139 139 137 134 132 132 137 140 127 112 118 118 120 121 126 121 109 120 125 108 116 98 97 98 114 126 128 117 119 135 143 147 147 159 179 213 234 244 255 259 268 271 268 266 263 265 261 277 286 285 284 276 277 285 295 303 314 320 315 313 312 312 313 313 313 314 313 315 316 315
236 227 227 224 205 177 153 152 144 149 143 136 132 130 128 131 131 129 132 132 137 137 136 126 120 119 120 121 122 117 113 121 103 109 109 104 94 101 108 118 109 110 114 116 128 134 142 158 180 203 214 231 232 245 261 268 276 278 278 274 277 278 281 283 283 275 286 293 293 286 308 319 319 314 313 312 311 311 309 308 310 313 316 316 317
227 178 146 130 125 123 121 122 125 124 123 127 127 122 123 122 123 126 127 127 127 125 120 120 123 129 127 124 123 118 117 114 115 114 116 93 87 97 113 104 96 91 94 102 103 115 143 187 203 218 228 231 238 241 253 260 267 273 278 276 279 283 282 284 289 297 299 303 298 296 313 321 314 311 311 312 312 312 312 313 314 316 316 318 319
47 59 72 82 93 102 108 112 115 117 121 123 124 128 128 128 130 131 132 133 131 128 124 122 122 122 119 124 124 123 121 99 101 110 108 92 110 106 106 94 96 89 85 92 100 138 166 189 217 226 235 243 255 256 259 263 268 267 274 279 280 283 293 309 309 303 304 311 305 305 324 317 314 313 315 317 317 316 312 312 316 318 321 320 320